Butte, MT

3:56 AM MDT on September 24, 2017 (GMT -0600)
Mooney

Weather History for KBTM - November, 2012

Change the Weather History Date:

Friday, November 9, 2012

  Actual Average Record
Temperature  
Mean Temperature 16 °F 31 °F  
Max Temperature 24 °F 44 °F 67 °F (2016)
Min Temperature 7 °F 19 °F -26 °F (1986)
Degree Days  
Heating Degree Days 49 34  
Month to date heating degree days 242 286  
Since 1 July heating degree days 1428 1657  
Cooling Degree Days 0 0  
Month to date cooling degree days 0 0  
Year to date cooling degree days 121 81  
Moisture  
Dew Point 14 °F    
Average Humidity 88    
Maximum Humidity 96    
Minimum Humidity 80    
Precipitation  
Precipitation 0.30 in 0.02 in 0.50 in (1909)
Month to date precipitation 0.62 0.18  
Year to date precipitation 8.41 11.84  
Sea Level Pressure  
Sea Level Pressure 29.74 in    
Wind  
Wind Speed 5 mph (NW)    
Max Wind Speed 12 mph    
Max Gust Speed 20 mph    
Visibility 1 miles    
Events Fog , Snow    
T = Trace of Precipitation, MM = Missing Value Source: NWS Daily Summary

Daily Weather History Graph

Daily Weather History Graph

Search for Another Location

Airport or City:

Trip Planner

Search our weather history database for the weather conditions in past years. The results will help you decide how hot, cold, wet, or windy it might be!

Date:

Astronomy

Nov. 09, 2012 Rise Set
Actual Time 7:22 AM MST 5:04 PM MST
Civil Twilight 6:50 AM MST 5:36 PM MST
Nautical Twilight 6:14 AM MST 6:12 PM MST
Astronomical Twilight 5:39 AM MST 6:47 PM MST
Moon 2:11 AM MST (11/9) 2:32 PM MST (11/9)
Length of Visible Light 10h 45m
Length of Day
9h 41m
Waning Crescent, 22% of the Moon is Illuminated
Nov 9
Waning Crescent
Nov 13
New
Nov 20
First Quarter
Nov 28
Full
Dec 6
Last Quarter

Hourly Weather History & Observations

Time (MST) Temp. Windchill Dew Point Humidity Pressure Visibility Wind Dir Wind Speed Gust Speed Precip Events Conditions
12:09 AM 23.0 °F 17.0 °F 21.2 °F 93% 29.66 in 0.5 mi NE 4.6 mph - 0.01 in Fog , Snow Snow
12:38 AM 23.0 °F - 21.2 °F 93% 29.65 in 1.0 mi Calm Calm - 0.02 in Snow Light Snow
12:46 AM 23.0 °F - 21.2 °F 93% 29.65 in 0.8 mi Calm Calm - 0.03 in Snow Light Snow
12:53 AM 23.0 °F - 21.9 °F 96% 29.76 in 1.0 mi Calm Calm - 0.03 in Snow Light Snow
1:41 AM 23.0 °F 17.0 °F 21.2 °F 93% 29.64 in 0.8 mi WNW 4.6 mph - 0.01 in Snow Light Snow
1:53 AM 21.9 °F 13.4 °F 19.9 °F 92% 29.75 in 1.0 mi NW 6.9 mph - 0.01 in Snow Light Snow
2:06 AM 23.0 °F - 19.4 °F 86% 29.65 in 2.0 mi Calm Calm - 0.00 in Snow Light Snow
2:39 AM 21.2 °F 10.9 °F 19.4 °F 93% 29.62 in 5.0 mi NW 9.2 mph - 0.00 in Snow Light Snow
2:53 AM 21.9 °F 11.7 °F 19.0 °F 89% 29.75 in 8.0 mi WNW 9.2 mph - 0.00 in   Overcast
3:10 AM 21.2 °F 12.6 °F 19.4 °F 93% 29.64 in 1.8 mi North 6.9 mph - 0.00 in Snow Light Snow
3:23 AM 21.2 °F 13.6 °F 19.4 °F 93% 29.64 in 0.8 mi NNW 5.8 mph - 0.01 in Snow Light Snow
3:47 AM 21.2 °F 16.4 °F 19.4 °F 93% 29.64 in 0.5 mi NW 3.5 mph - 0.02 in Fog , Snow Snow
3:48 AM 21.9 °F 17.2 °F 19.9 °F 92% 29.76 in 0.5 mi NNW 3.5 mph - 0.02 in Fog , Snow Snow
4:53 AM 21.9 °F 15.7 °F 19.9 °F 92% 29.75 in 0.8 mi North 4.6 mph - 0.04 in Snow Light Snow
5:11 AM 21.2 °F - 19.4 °F 93% 29.67 in 0.8 mi Calm Calm - 0.01 in Snow Light Snow
5:53 AM 21.9 °F - 19.9 °F 92% 29.78 in 1.0 mi Calm Calm - 0.02 in Snow Light Snow
6:09 AM 21.2 °F 14.9 °F 19.4 °F 93% 29.66 in 0.8 mi SSE 4.6 mph - 0.01 in Snow Light Snow
6:27 AM 21.2 °F 16.4 °F 19.4 °F 93% 29.64 in 1.0 mi ESE 3.5 mph - 0.01 in Snow Light Snow
6:41 AM 21.2 °F - 19.4 °F 93% 29.64 in 0.8 mi Calm Calm - 0.02 in Snow Light Snow
6:53 AM 21.9 °F - 19.9 °F 92% 29.76 in 0.8 mi Calm Calm - 0.02 in Snow Light Snow
7:19 AM 21.2 °F - 19.4 °F 93% 29.65 in 1.0 mi Calm Calm - 0.01 in Snow Light Snow
7:39 AM 21.2 °F - 19.4 °F 93% 29.65 in 0.8 mi Calm Calm - 0.02 in Snow Light Snow
7:53 AM 23.0 °F 17.0 °F 19.9 °F 88% 29.76 in 0.5 mi North 4.6 mph - 0.02 in Fog , Snow Light Snow
8:07 AM 21.2 °F - 19.4 °F 93% 29.65 in 0.2 mi Calm Calm - 0.01 in Fog , Snow Snow
8:34 AM 21.2 °F 14.9 °F 19.4 °F 93% 29.66 in 0.5 mi NW 4.6 mph - 0.02 in Fog , Snow Light Snow
8:53 AM 21.9 °F 17.2 °F 19.9 °F 92% 29.79 in 0.8 mi NNW 3.5 mph - 0.02 in Snow Light Snow
9:53 AM 21.9 °F 14.5 °F 19.0 °F 89% 29.80 in 0.5 mi WNW 5.8 mph - 0.02 in Fog , Snow Light Snow
10:25 AM 21.2 °F 12.6 °F 17.6 °F 86% 29.65 in 1.5 mi WNW 6.9 mph - 0.00 in Snow Light Snow
10:32 AM 21.2 °F 10.9 °F 17.6 °F 86% 29.65 in 3.0 mi WNW 9.2 mph - 0.00 in Snow Light Snow
10:53 AM 19.9 °F 11.1 °F 16.0 °F 85% 29.81 in 7.0 mi WNW 6.9 mph - 0.00 in   Overcast
11:25 AM 17.6 °F 7.3 °F 14.0 °F 86% 29.67 in 4.0 mi NW 8.1 mph - 0.00 in Snow Light Snow
11:30 AM 17.6 °F 6.4 °F 14.0 °F 86% 29.67 in 1.8 mi WNW 9.2 mph - 0.00 in Snow Light Snow
11:49 AM 17.6 °F 12.3 °F 12.2 °F 79% 29.67 in 0.8 mi NW 3.5 mph - 0.00 in Snow Light Snow
11:53 AM 18.0 °F 11.1 °F 12.9 °F 81% 29.83 in 1.0 mi Variable 4.6 mph - 0.00 in Snow Light Snow
12:04 PM 17.6 °F - 12.2 °F 79% 29.67 in 3.0 mi Calm Calm - 0.00 in Snow Light Snow
12:18 PM 17.6 °F 9.3 °F 12.2 °F 79% 29.67 in 1.8 mi Variable 5.8 mph - 0.00 in Snow Light Snow
12:27 PM 17.6 °F 6.4 °F 12.2 °F 79% 29.68 in 0.5 mi WNW 9.2 mph - 0.01 in Snow Snow
12:53 PM 16.0 °F 5.3 °F 10.9 °F 81% 29.84 in 0.2 mi NW 8.1 mph - 0.01 in Snow Heavy Snow
1:17 PM 15.8 °F 10.2 °F 10.4 °F 79% 29.68 in 0.8 mi Variable 3.5 mph - 0.01 in Snow Light Snow
1:24 PM 15.8 °F 10.2 °F 10.4 °F 79% 29.69 in 1.2 mi Variable 3.5 mph - 0.01 in Snow Light Snow
1:42 PM 15.8 °F 8.6 °F 10.4 °F 79% 29.68 in 0.5 mi North 4.6 mph - 0.01 in Snow Snow
1:53 PM 15.1 °F 5.2 °F 10.9 °F 84% 29.86 in 0.2 mi NW 6.9 mph - 0.01 in Fog , Snow Light Snow
2:03 PM 15.8 °F 8.6 °F 10.4 °F 79% 29.68 in 0.2 mi NW 4.6 mph - 0.00 in Fog , Snow Snow
2:23 PM 15.8 °F 6.1 °F 10.4 °F 79% 29.68 in 0.2 mi WNW 6.9 mph - 0.02 in Fog , Snow Heavy Snow
2:53 PM 14.0 °F 8.2 °F 10.9 °F 88% 29.86 in 0.2 mi West 3.5 mph - 0.04 in Fog , Snow Snow
3:41 PM 15.8 °F 8.6 °F 10.4 °F 79% 29.68 in 0.2 mi NW 4.6 mph - 0.02 in Fog , Snow Snow
3:53 PM 14.0 °F 3.9 °F 9.0 °F 80% 29.87 in 0.8 mi WNW 6.9 mph - 0.02 in Snow Light Snow
4:53 PM 12.9 °F - 9.0 °F 84% 29.87 in 1.0 mi Calm Calm - 0.01 in Snow Light Snow
5:24 PM 12.2 °F 4.3 °F 8.6 °F 85% 29.70 in 2.0 mi ESE 4.6 mph - 0.00 in Snow Light Snow
5:42 PM 12.2 °F - 8.6 °F 85% 29.70 in 1.8 mi Calm Calm - 0.00 in Snow Light Snow
5:53 PM 12.0 °F - 9.0 °F 88% 29.89 in 1.5 mi Calm Calm - 0.00 in Snow Light Snow
6:53 PM 10.9 °F 4.7 °F 6.1 °F 81% 29.91 in 1.5 mi Variable 3.5 mph - 0.00 in Snow Light Snow
7:44 PM 10.4 °F -0.4 °F 6.8 °F 85% 29.73 in 1.0 mi NW 6.9 mph - 0.00 in Snow Light Snow
7:46 PM 10.4 °F -1.5 °F 6.8 °F 85% 29.74 in 0.8 mi WNW 8.1 mph - 0.00 in Snow Light Snow
7:53 PM 10.0 °F 0.4 °F 6.1 °F 84% 29.92 in 1.0 mi Variable 5.8 mph - 0.00 in Snow Light Snow
8:22 PM 10.4 °F 2.2 °F 6.8 °F 85% 29.74 in 0.8 mi West 4.6 mph - 0.01 in Snow Light Snow
8:28 PM 10.4 °F -0.4 °F 6.8 °F 85% 29.74 in 1.0 mi West 6.9 mph - 0.01 in Snow Light Snow
8:53 PM 9.0 °F -0.9 °F 5.0 °F 84% 29.94 in 1.2 mi WNW 5.8 mph - 0.01 in Snow Light Snow
9:40 PM 8.6 °F -1.3 °F 3.2 °F 79% 29.75 in 1.8 mi NW 5.8 mph 19.6 mph 0.00 in Snow Light Snow
9:53 PM 8.1 °F -3.2 °F 3.9 °F 83% 29.95 in 2.0 mi NW 6.9 mph - 0.00 in Snow Light Snow
10:06 PM 8.6 °F 0.1 °F 3.2 °F 79% 29.75 in 1.2 mi Variable 4.6 mph - 0.00 in Snow Light Snow
10:30 PM 8.6 °F -2.6 °F 3.2 °F 79% 29.75 in 2.0 mi West 6.9 mph - 0.00 in Snow Light Snow
10:53 PM 7.0 °F -4.5 °F 3.0 °F 84% 29.96 in 4.0 mi NW 6.9 mph - 0.00 in Snow Light Snow
11:48 PM 6.8 °F -0.1 °F 3.2 °F 85% 29.76 in 2.5 mi ESE 3.5 mph - 0.00 in Snow Light Snow
11:53 PM 7.0 °F 0.1 °F 3.0 °F 84% 29.98 in 1.2 mi East 3.5 mph - 0.00 in Snow Light Snow